Location: Sternwarte Stuttgart
(48.7670°N, 9.1830°E)
Time: 00:43:09
(UTC+01:00)

SMAP - Pass Details

Date: 24 January 2019
Orbit: 681 x 683 km, 98.1° (Epoch: 16 February)

Event Time Altitude Azimuth Distance (km) Brightness Sun altitude
Rises 07:05:45 0° 12° (NNE) 3,055 6.3 -9.5°
Reaches altitude 10° 07:08:01 10° 10° (N) 2,135 5.5 -9.2°
Maximum altitude 07:12:39 71° 287° (WNW) 725 3.0 -8.5°
Drops below altitude 10° 07:17:16 10° 204° (SSW) 2,118 5.6 -7.7°
Sets 07:19:30 0° 202° (SSW) 3,029 6.4 -7.4°
